Tracking 18784 objects as of 18-August-2017
HD Live streaming from Space Station
objects crossing your sky now

RADIO 6

Track RADIO 6 now!
10-day predictions
RADIO 6 is classified as:


NORAD ID: 13002
Int'l Code: 1981-120F
Perigee: 1,586.8 km
Apogee: 1,666.8 km
Inclination: 83.0 °
Period: 118.6 minutes
Semi major axis: 7997 km
RCS: 0.8643 m2 (medium)
Launch date: December 17, 1981
Source: Commonwealth of Independent States (former USSR) (CIS)
Launch site: PLESETSK MISSILE AND SPACE COMPLEX (PKMTR)
Uplink (MHz):
Downlink (MHz):
Beacon (MHz):
Mode:
Call sign:
Status:

Your satellite tracking list
Your tracking list is empty





NASA's NSSDC Master Catalog

Two Line Element Set (TLE):
1 13002U 81120F   17229.67288882 -.00000035  00000-0 -45685-3 0  9999
2 13002  82.9583 282.0470 0050011 298.7253 179.0938 12.13791266580333
Source of the keplerian elements: AFSPC